Location: Corcelles
(46.8332°N, 6.9623°E)
Time: 17:26:00
(UTC+00:00)

Daily predictions for brighter satellites

Satellite Brightness Start Highest point End
(mag) Time Altitude Azimuth Time Altitude Azimuth Time Altitude Azimuth
Cosmos 407 Rocket 4.0 20:04:14 10° NNW 20:09:15 46° ENE 20:14:11 10° SE
APEX 4.1 20:03:40 10° SSW 20:09:39 66° ESE 20:14:40 10° NE
SL-14 R/B 3.2 20:06:35 10° S 20:10:26 82° E 20:14:21 10° N
S3M 4.1 20:04:53 10° S 20:11:00 61° E 20:17:03 10° NNE
Cosmos 1455 Rocket 3.9 20:09:16 10° N 20:13:17 34° ENE 20:17:15 10° SE
SL-16 R/B 4.2 20:08:27 10° WSW 20:13:37 35° NW 20:18:51 10° NNE
USA 245 4.1 20:08:53 10° SSE 20:13:53 51° ENE 20:18:00 10° N
Cosmos 1626 4.0 20:10:57 10° SW 20:14:15 32° WNW 20:17:36 10° N
MetOp-B 4.2 20:11:14 10° SSE 20:16:34 78° ENE 20:21:57 10° NNW
SPOT 5 3.5 20:13:16 10° SE 20:17:24 36° ENE 20:21:25 10° N
Meteor 2-5 Rocket 4.4 20:13:03 10° SSE 20:18:01 35° E 20:23:00 10° NNE
SPOT 1/Viking Rocket 3.8 20:15:59 10° S 20:21:05 72° WSW 20:26:16 10° NNW
Cosmos 1025 Rocket 3.8 20:20:54 10° SSE 20:24:42 33° E 20:28:33 10° NNE
Cosmos 1300 2.7 20:21:01 10° N 20:24:50 88° WSW 20:28:37 10° S
ERS-1 Rocket 3.5 20:24:44 10° SE 20:29:30 45° ENE 20:34:18 10° N
Cosmos 1140 Rocket 3.5 20:27:42 10° NNW 20:32:57 76° ENE 20:37:57 11° SSE
Cosmos 1953 3.4 20:31:51 10° NNW 20:35:35 41° W 20:39:18 10° SSW
Cosmos 1943 3.5 20:31:22 10° SSW 20:37:02 74° WNW 20:42:43 10° NNE
Cosmos 1023 Rocket 4.5 20:32:00 10° NNW 20:37:15 85° ENE 20:42:11 11° SSE
Cosmos 1745 Rocket 4.2 20:33:33 10° NNW 20:39:40 74° W 20:45:48 10° S
Cosmos 1603 3.9 20:35:19 10° SSW 20:41:00 78° WNW 20:46:47 10° NNE
CZ-2C R/B 4.4 20:37:28 10° NNE 20:41:47 37° E 20:45:46 11° SSE
Lacrosse 5 3.1 20:37:42 10° NW 20:42:29 38° NNE 20:47:14 10° E
Cosmos 1975 Rocket 3.1 20:40:54 10° S 20:45:19 67° E 20:49:46 10° NNE
Helios 1A Rocket 3.0 20:43:49 13° SSE 20:47:24 68° ENE 20:51:29 10° N
H-2A R/B 3.9 20:43:37 10° N 20:47:31 34° WNW 20:51:31 10° SW
Ariane Rocket 3.9 20:43:50 10° S 20:48:44 47° W 20:53:41 10° NNW
CARTOSAT-1 4.0 20:45:06 10° S 20:49:21 58° W 20:53:38 10° NNW
Resurs 01 Rocket 3.5 20:49:33 10° SSW 20:53:20 27° W 20:57:10 10° NW
Lacrosse 4 Rocket 3.2 20:53:25 10° WSW 20:57:14 35° NW 21:01:01 10° NNE
Tiangong 2.1 20:56:05 10° SW 20:58:50 27° S 21:00:12 20° SE
Cosmos 1544 Rocket 3.7 21:00:16 10° N 21:04:34 60° E 21:07:38 18° SSE
FALCON 9 DEB 3.1 21:02:55 10° WSW 21:06:11 80° NNW 21:09:27 10° ENE
Terra 1.8 21:02:52 16° SSE 21:06:40 75° ENE 21:11:26 10° N
SL-8 R/B 3.8 21:03:27 10° W 21:08:16 79° N 21:13:07 10° ENE
USA 267 3.2 21:03:19 10° NE 21:09:52 72° SE 21:16:24 10° SW
Meteor 1-24 Rocket 3.5 21:06:38 10° S 21:11:55 85° E 21:17:19 10° NNE
Cosmos 1455 2.2 21:08:34 10° N 21:12:21 64° E 21:14:42 21° SSE
Cosmos 2315 Rocket 4.1 21:06:43 10° S 21:13:05 82° W 21:19:27 10° N
Cosmos 2369 Rocket 4.3 21:09:37 10° WNW 21:13:27 19° W 21:17:17 10° SW
Cosmos 1697 Rocket 4.5 21:11:25 10° N 21:15:50 23° NE 21:20:12 10° E
NOSS 2-1 (C) 4.5 21:13:07 10° NNW 21:17:23 52° NE 21:22:11 15° ESE
Cosmos 1371 Rocket 4.0 21:12:41 10° SSW 21:17:54 85° ESE 21:23:12 10° NNE
Spot 2 Rocket 3.9 21:15:27 13° S 21:19:53 59° W 21:24:57 10° NNW
ARIANE 5 R/B 2.6 21:23:37 21° SSE 21:26:38 88° ENE 21:31:08 10° NNW
NOSS 2-1 (D) 4.3 21:23:24 10° NNW 21:27:47 62° NE 21:32:17 18° SE
Lacrosse 5 rocket 1.3 21:25:22 10° NW 21:29:14 75° NE 21:31:47 22° ESE
Cosmos 2084 3.3 21:26:52 15° SSW 21:29:53 49° SE 21:33:38 10° NE
Cosmos 2074 Rocket 4.0 21:31:28 10° N 21:37:47 75° E 21:42:02 22° SSE
Cosmos 1624 Rocket 4.3 21:34:30 10° SSW 21:39:44 70° WNW 21:44:57 10° NNE
ATLAS 2AS CENTAUR R/B 2.7 21:33:00 10° NW 21:40:12 88° NE 21:44:51 22° SE
Cosmos 1656 3.9 21:38:03 10° NNW 21:43:28 59° ENE 21:46:54 23° SE
GP-B 4.4 21:40:11 10° NNE 21:43:58 26° E 21:45:39 21° ESE
USA 234 3.3 21:38:51 16° SE 21:44:16 89° NNE 21:50:52 10° NW
Cosmos 1833 Rocket 3.7 21:44:37 23° SE 21:46:36 28° ESE 21:51:18 10° NE
SPOT 5 4.4 21:52:00 11° SSW 21:55:33 25° W 21:59:14 10° NW
Cosmos 2154 Rocket 4.0 21:50:52 10° N 21:57:08 74° E 22:00:52 26° SSE
Nadezhda 1 Rocket 4.0 21:54:38 24° SSE 21:58:24 64° E 22:04:24 10° NNE
Cosmos 1271 Rocket 3.8 21:55:22 10° NNW 21:59:06 39° W 22:01:16 21° SSW
Cosmos 2056 Rocket 4.4 21:54:18 10° SW 21:59:31 50° WNW 22:04:48 10° NNE
Cosmos 2082 Rocket 3.9 21:59:42 15° ESE 22:00:54 16° E 22:04:09 10° ENE
Cosmos 1741 Rocket 4.2 21:58:54 10° NNW 22:04:13 68° ENE 22:07:02 28° SE
Cosmos 1610 Rocket 4.5 21:58:51 10° N 22:05:04 76° E 22:08:40 27° SSE
Cosmos 1536 Rocket 4.3 22:13:48 19° SW 22:16:40 48° WNW 22:20:53 10° N
Cosmos 1295 Rocket 4.5 22:10:53 10° N 22:17:13 86° W 22:20:45 28° S
Cosmos 1607 4.5 22:11:20 10° SW 22:17:29 59° NW 22:23:36 10° NNE
Lacrosse 5 1.9 22:20:42 10° NW 22:25:47 69° SW 22:27:56 34° SSE
Cosmos 1606 Rocket 3.4 22:21:34 10° N 22:25:54 89° W 22:27:26 40° S
H-2A R/B 4.2 22:22:28 10° NNE 22:26:24 37° E 22:27:16 33° SE
NOSS 2-1 (E) 4.3 22:21:43 10° NW 22:26:24 61° SW 22:29:25 30° SSE
COSMOS 2406 4.0 22:25:01 29° SE 22:26:50 35° ESE 22:32:01 10° NE
Cosmos 724 4.4 22:25:00 10° SW 22:30:47 73° NW 22:36:36 10° NNE
TSX-5 4.3 22:33:04 25° SW 22:35:39 78° WNW 22:41:12 10° NNE
SL-8 Rocket 4.3 22:30:07 10° N 22:36:20 59° ENE 22:39:30 29° SE
Cosmos 1850 Rocket 4.1 22:31:44 10° NNW 22:36:54 63° WSW 22:39:02 34° S
Cosmos 2369 4.4 22:32:07 10° NNW 22:37:40 47° ENE 22:41:14 21° ESE
Cosmos 1328 3.8 22:37:12 42° SSW 22:38:29 81° W 22:42:32 10° N
Meteor 1-21 Rocket 4.4 22:35:49 24° SSW 22:39:10 68° WNW 22:44:48 10° N
Cosmos 2228 3.9 22:35:36 10° NNW 22:39:35 40° W 22:41:10 28° SW
Cosmos 2218 Rocket 4.5 22:33:38 10° N 22:39:55 54° ENE 22:43:17 27° SE
Cosmos 2341 Rocket 4.0 22:35:30 10° N 22:41:54 76° E 22:45:04 32° SSE
Cosmos 1408 2.6 22:43:33 51° ESE 22:43:49 53° E 22:47:11 10° NNE
Terra 4.2 22:42:31 10° WSW 22:44:58 14° W 22:47:25 10° WNW
Cosmos 1825 3.4 22:46:54 27° E 22:47:15 27° E 22:50:29 10° NNE
ALOS 2 2.6 22:46:37 41° SSE 22:48:04 73° ENE 22:52:28 10° N
Cosmos 2366 rocket 4.2 22:43:20 10° N 22:49:36 62° ENE 22:52:47 30° SSE
SL-8 R/B 3.8 22:46:10 10° WNW 22:51:00 80° N 22:55:51 10° E
Cosmos 1726 Rocket 3.7 22:48:02 10° NNW 22:52:18 61° W 22:53:36 41° SSW
USA 267 4.1 22:46:28 10° NE 22:52:44 51° NNW 22:59:00 10° W
Cosmos 1980 Rocket 2.6 22:50:22 10° NNW 22:56:00 57° ENE 22:59:14 25° SE
RESURS DK-1 2.5 22:54:11 10° NW 22:58:15 59° WSW 22:59:03 48° SSW
Cosmos 1331 Rocket 4.1 22:57:22 28° SSW 23:00:13 74° WNW 23:05:34 10° NNE
Cosmos 1697 Rocket 2.6 22:54:46 10° NNW 23:00:24 75° WSW 23:02:42 37° S
Cosmos 1452 Rocket 4.5 22:57:19 14° SW 23:01:29 44° WNW 23:06:31 10° N
Spot 4 4.3 23:04:25 35° SSW 23:06:02 49° W 23:10:42 10° NNW
Cosmos 1892 2.5 23:06:34 62° S 23:07:09 89° ENE 23:10:56 10° N
Lacrosse 5 rocket 3.1 23:05:06 10° W 23:07:17 18° WSW 23:07:17 18° WSW
ERS-2 2.3 23:05:40 10° NNE 23:09:11 53° E 23:09:26 52° ESE
ADEOS Rocket 3.4 23:05:35 31° SSE 23:09:17 85° WSW 23:16:52 10° NNW
USA 276 2.5 23:10:14 50° NE 23:10:14 50° NE 23:12:33 10° ENE
In-Cosmos 22 Rocket 4.2 23:08:21 37° S 23:10:38 71° E 23:16:10 10° NNE
Cosmos 2084 Rocket 4.3 23:07:15 10° NNW 23:11:00 43° NE 23:13:11 22° ESE
Cosmos 2058 Rocket 3.3 23:11:13 10° NNW 23:15:33 60° W 23:16:43 43° SSW
Cosmos 1602 Rocket 4.3 23:15:24 34° ESE 23:16:21 39° E 23:20:23 10° NNE
Cosmos 2181 Rocket 3.9 23:15:17 34° S 23:18:11 89° WNW 23:24:24 10° N
Cosmos 1959 Rocket 4.4 23:12:31 10° N 23:18:40 86° W 23:21:25 35° S
GP-B 4.4 23:17:20 10° NNW 23:21:16 32° W 23:23:05 23° WSW
Cosmos 1302 Rocket 3.9 23:21:10 38° SSW 23:23:14 89° ESE 23:28:28 10° NNE
Cosmos 192 4.3 23:21:56 38° SSW 23:23:49 82° WNW 23:28:45 10° NNE
Cosmos 2278 4.2 23:18:22 10° NNW 23:24:01 57° ENE 23:27:31 23° SE
Cosmos 2322 Rocket 4.2 23:20:18 10° N 23:24:51 24° NE 23:29:21 10° E
USA 234 4.1 23:26:12 27° SSW 23:27:46 30° SW 23:33:24 10° WNW
Cosmos 864 Rocket 4.5 23:22:24 10° NNW 23:28:33 73° W 23:31:19 35° S
ATLAS 2AS CENTAUR R/B 4.1 23:25:16 10° WNW 23:30:08 21° WSW 23:32:16 18° SW
Cosmos 1833 Rocket 3.4 23:26:16 18° SW 23:30:13 50° WNW 23:35:43 10° NNE
BREEZE-M DEB (TANK) 4.2 23:36:51 10° WNW 23:40:32 80° NNE 23:56:32 10° ESE
Okean 1-7 Rocket 3.7 23:39:49 43° SW 23:41:06 66° W 23:45:33 10° N
Cosmos 1626 Rocket 3.5 23:42:03 47° SSW 23:43:11 73° W 23:47:31 10° N
Cosmos 2082 Rocket 2.2 23:41:32 34° SSW 23:44:11 86° WNW 23:49:56 10° NNE
Cosmos 1821 Rocket 4.0 23:41:34 10° N 23:47:54 82° E 23:50:56 33° SSE
Meteor 1-27 4.4 23:43:48 10° NNW 23:49:15 57° W 23:51:21 35° SSW
Cosmos 1869 3.6 23:46:40 10° NNW 23:50:24 48° W 23:50:55 45° WSW
ATLAS 5 CENTAUR R/B 2.5 23:51:04 26° ESE 23:51:04 26° ESE 23:54:16 10° ENE
Cosmos 1825 Rocket 4.2 23:53:55 34° SE 23:55:06 42° E 23:59:11 10° NNE
